• In Schweiz
  • Länderverzeichnis
  • Für 7 Tage
  • Wassertemperatur
  • Satellitenkarten
  • Wetterkarte
  • Widgets
  • user-avatar
    Anmelden

    Stündliche Wetter Seredynky

    Heute, 20 September, Donnerstag

    Zeit Temperatur Niederschläge Wind Luftdruck Luftfeuchtigkeit
    00:00 +18°C° 0 mm 1 m/S 735 mmHg 74%
    01:00 +16°C° 0 mm 1 m/S 735 mmHg 75%
    02:00 +16°C° 0 mm 1 m/S 735 mmHg 77%
    03:00 +15°C° 0 mm 0 m/S 735 mmHg 78%
    04:00 +15°C° 0 mm 0 m/S 735 mmHg 79%
    05:00 +14°C° 0 mm 0 m/S 735 mmHg 80%
    06:00 +15°C° 0 mm 0 m/S 735 mmHg 77%
    07:00 +16°C° 0 mm 0 m/S 735 mmHg 73%
    08:00 +20°C° 0 mm 1 m/S 736 mmHg 70%
    09:00 +21°C° 0 mm 1 m/S 736 mmHg 64%
    10:00 +23°C° 0 mm 1 m/S 736 mmHg 59%
    11:00 +25°C° 0 mm 1 m/S 736 mmHg 54%
    12:00 +25°C° 0 mm 1 m/S 736 mmHg 51%
    13:00 +26°C° 0 mm 1 m/S 736 mmHg 49%
    14:00 +27°C° 0 mm 1 m/S 735 mmHg 46%
    15:00 +26°C° 0 mm 1 m/S 735 mmHg 49%
    16:00 +26°C° 0 mm 1 m/S 735 mmHg 51%
    17:00 +26°C° 0 mm 1 m/S 735 mmHg 54%
    18:00 +24°C° 0 mm 1 m/S 735 mmHg 57%
    19:00 +22°C° 0 mm 1 m/S 735 mmHg 61%
    20:00 +20°C° 0 mm 1 m/S 734 mmHg 64%
    21:00 +20°C° 0 mm 1 m/S 734 mmHg 65%
    22:00 +19°C° 0 mm 1 m/S 734 mmHg 66%
    23:00 +19°C° 0 mm 1 m/S 734 mmHg 67%

    Morgen, 21 September, Freitag

    Zeit Temperatur Niederschläge Wind Luftdruck Luftfeuchtigkeit
    00:00 +18°C° 0 mm 1 m/S 734 mmHg 67%
    01:00 +18°C° 0 mm 1 m/S 734 mmHg 67%
    02:00 +16°C° 0 mm 1 m/S 734 mmHg 67%
    03:00 +16°C° 0 mm 1 m/S 734 mmHg 67%
    04:00 +16°C° 0 mm 2 m/S 734 mmHg 66%
    05:00 +15°C° 0 mm 2 m/S 734 mmHg 66%
    06:00 +16°C° 0 mm 2 m/S 734 mmHg 64%
    07:00 +17°C° 0 mm 2 m/S 734 mmHg 62%
    08:00 +18°C° 0 mm 3 m/S 734 mmHg 61%
    09:00 +19°C° 0 mm 3 m/S 734 mmHg 56%
    10:00 +21°C° 0 mm 4 m/S 734 mmHg 51%
    11:00 +23°C° 0 mm 4 m/S 734 mmHg 45%
    12:00 +25°C° 0 mm 4 m/S 733 mmHg 44%
    13:00 +26°C° 0 mm 4 m/S 733 mmHg 42%
    14:00 +26°C° 0 mm 4 m/S 733 mmHg 41%
    15:00 +26°C° 0 mm 4 m/S 732 mmHg 44%
    16:00 +25°C° 0 mm 3 m/S 732 mmHg 48%
    17:00 +25°C° 0 mm 3 m/S 732 mmHg 51%
    18:00 +22°C° 0 mm 3 m/S 732 mmHg 52%
    19:00 +21°C° 0 mm 3 m/S 732 mmHg 54%
    20:00 +19°C° 0 mm 2 m/S 732 mmHg 55%
    21:00 +18°C° 0 mm 2 m/S 732 mmHg 56%
    22:00 +18°C° 0 mm 2 m/S 732 mmHg 57%
    23:00 +17°C° 0 mm 2 m/S 732 mmHg 57%

    übermorgen, 22 September, Samstag

    Zeit Temperatur Niederschläge Wind Luftdruck Luftfeuchtigkeit
    00:00 +17°C° 0 mm 2 m/S 731 mmHg 59%
    01:00 +17°C° 0 mm 2 m/S 731 mmHg 62%
    02:00 +16°C° 0 mm 2 m/S 731 mmHg 64%
    03:00 +16°C° 0 mm 2 m/S 731 mmHg 65%
    04:00 +16°C° 0 mm 2 m/S 731 mmHg 65%
    05:00 +16°C° 0 mm 2 m/S 731 mmHg 66%
    06:00 +17°C° 0 mm 2 m/S 731 mmHg 65%
    07:00 +17°C° 0 mm 3 m/S 731 mmHg 64%
    08:00 +18°C° 0 mm 3 m/S 732 mmHg 63%
    09:00 +19°C° 0 mm 3 m/S 732 mmHg 61%
    10:00 +21°C° 0 mm 4 m/S 732 mmHg 59%
    11:00 +22°C° 0 mm 4 m/S 732 mmHg 57%
    12:00 +21°C° 0 mm 4 m/S 732 mmHg 59%
    13:00 +21°C° 0 mm 5 m/S 732 mmHg 62%
    14:00 +21°C° 0 mm 5 m/S 732 mmHg 64%
    15:00 +19°C° 0 mm 5 m/S 732 mmHg 65%
    16:00 +17°C° 0 mm 5 m/S 732 mmHg 66%
    17:00 +15°C° 0 mm 5 m/S 732 mmHg 67%
    18:00 +14°C° 0.2 mm 5 m/S 733 mmHg 70%
    19:00 +13°C° 0.2 mm 5 m/S 733 mmHg 73%
    20:00 +12°C° 0.2 mm 4 m/S 733 mmHg 76%
    21:00 +11°C° 1.6 mm 4 m/S 733 mmHg 81%
    22:00 +10°C° 1.6 mm 4 m/S 733 mmHg 86%
    23:00 +9°C° 1.6 mm 3 m/S 734 mmHg 91%

    23 September, Sonntag

    Zeit Temperatur Niederschläge Wind Luftdruck Luftfeuchtigkeit
    00:00 +9°C° 0.5 mm 3 m/S 734 mmHg 91%
    01:00 +8°C° 0.5 mm 3 m/S 734 mmHg 91%
    02:00 +8°C° 0.5 mm 3 m/S 734 mmHg 91%
    03:00 +8°C° 0 mm 3 m/S 734 mmHg 91%
    04:00 +7°C° 0 mm 3 m/S 734 mmHg 91%
    05:00 +7°C° 0 mm 3 m/S 734 mmHg 91%
    06:00 +8°C° 0 mm 3 m/S 734 mmHg 88%
    07:00 +7°C° 0 mm 4 m/S 734 mmHg 85%
    08:00 +8°C° 0 mm 4 m/S 734 mmHg 81%
    09:00 +11°C° 0 mm 4 m/S 734 mmHg 74%
    10:00 +13°C° 0 mm 4 m/S 734 mmHg 66%
    11:00 +14°C° 0 mm 5 m/S 734 mmHg 58%
    12:00 +15°C° 0 mm 5 m/S 734 mmHg 55%
    13:00 +15°C° 0 mm 5 m/S 734 mmHg 52%
    14:00 +16°C° 0 mm 5 m/S 734 mmHg 49%
    15:00 +17°C° 0 mm 4 m/S 733 mmHg 51%
    16:00 +16°C° 0 mm 3 m/S 733 mmHg 54%
    17:00 +16°C° 0 mm 2 m/S 733 mmHg 57%
    18:00 +15°C° 0 mm 2 m/S 732 mmHg 59%
    19:00 +14°C° 0 mm 2 m/S 732 mmHg 61%
    20:00 +12°C° 0 mm 2 m/S 732 mmHg 63%
    21:00 +11°C° 0 mm 3 m/S 732 mmHg 62%
    22:00 +11°C° 0 mm 4 m/S 731 mmHg 61%
    23:00 +12°C° 0 mm 5 m/S 730 mmHg 60%

    24 September, Montag

    Zeit Temperatur Niederschläge Wind Luftdruck Luftfeuchtigkeit
    00:00 +12°C° 0 mm 5 m/S 729 mmHg 58%
    01:00 +11°C° 0 mm 6 m/S 728 mmHg 56%
    02:00 +11°C° 0 mm 6 m/S 727 mmHg 54%
    03:00 +11°C° 0 mm 6 m/S 726 mmHg 55%
    04:00 +11°C° 0 mm 6 m/S 725 mmHg 55%
    05:00 +11°C° 0 mm 7 m/S 723 mmHg 55%
    06:00 +11°C° 0 mm 6 m/S 722 mmHg 58%
    07:00 +13°C° 0 mm 6 m/S 722 mmHg 60%
    08:00 +14°C° 0 mm 6 m/S 721 mmHg 62%
    09:00 +15°C° 0.2 mm 6 m/S 720 mmHg 64%
    10:00 +16°C° 0.2 mm 7 m/S 720 mmHg 65%
    11:00 +17°C° 0.2 mm 7 m/S 719 mmHg 66%
    12:00 +16°C° 0.3 mm 7 m/S 719 mmHg 69%
    13:00 +16°C° 0.3 mm 8 m/S 719 mmHg 72%
    14:00 +15°C° 0.3 mm 8 m/S 719 mmHg 75%
    15:00 +13°C° 0.1 mm 9 m/S 719 mmHg 74%
    16:00 +13°C° 0.1 mm 10 m/S 720 mmHg 73%
    17:00 +12°C° 0.1 mm 10 m/S 721 mmHg 72%
    18:00 +11°C° 0 mm 11 m/S 721 mmHg 71%
    19:00 +9°C° 0 mm 11 m/S 721 mmHg 70%
    20:00 +8°C° 0 mm 11 m/S 722 mmHg 69%
    21:00 +8°C° 0 mm 11 m/S 722 mmHg 67%
    22:00 +8°C° 0 mm 12 m/S 722 mmHg 65%
    23:00 +8°C° 0 mm 12 m/S 722 mmHg 64%

    25 September, Dienstag

    Zeit Temperatur Niederschläge Wind Luftdruck Luftfeuchtigkeit
    00:00 +8°C° 0 mm 12 m/S 723 mmHg 65%
    01:00 +8°C° 0 mm 12 m/S 723 mmHg 66%
    02:00 +8°C° 0 mm 12 m/S 723 mmHg 68%
    03:00 +7°C° 0.1 mm 12 m/S 724 mmHg 69%
    04:00 +7°C° 0.1 mm 12 m/S 725 mmHg 69%
    05:00 +7°C° 0.1 mm 11 m/S 726 mmHg 70%
    06:00 +7°C° 0 mm 11 m/S 727 mmHg 69%
    07:00 +6°C° 0 mm 11 m/S 727 mmHg 67%
    08:00 +6°C° 0 mm 10 m/S 728 mmHg 66%
    09:00 +6°C° 0 mm 10 m/S 729 mmHg 65%
    10:00 +6°C° 0 mm 10 m/S 729 mmHg 64%
    11:00 +7°C° 0 mm 9 m/S 730 mmHg 63%
    12:00 +7°C° 0.1 mm 9 m/S 730 mmHg 60%
    13:00 +8°C° 0.1 mm 9 m/S 731 mmHg 57%
    14:00 +10°C° 0.1 mm 9 m/S 731 mmHg 54%
    15:00 +9°C° 0.1 mm 8 m/S 731 mmHg 56%
    16:00 +9°C° 0.1 mm 8 m/S 731 mmHg 58%
    17:00 +8°C° 0.1 mm 7 m/S 731 mmHg 60%
    18:00 +7°C° 0 mm 6 m/S 732 mmHg 63%
    19:00 +5°C° 0 mm 6 m/S 732 mmHg 66%
    20:00 +5°C° 0 mm 5 m/S 733 mmHg 68%
    21:00 +5°C° 0 mm 5 m/S 733 mmHg 70%
    22:00 +5°C° 0 mm 5 m/S 734 mmHg 71%
    23:00 +3°C° 0 mm 5 m/S 734 mmHg 72%
    Mehr zeigen